AirNav   Everest Fuels
 
 376 users online  

PAFR Bryant Army Airfield Heliport
Fort Richardson (Anchorage), Alaska, USA

GOING TO FORT RICHARDSON (ANCHORAGE)?


FAA INFORMATION EFFECTIVE 31 DECEMBER 2020

Location

FAA Identifier: FRN
Lat/Long: 61-15-57.2375N 149-39-11.9075W
61-15.953958N 149-39.198458W
61.2658993,-149.6533076
(estimated)
Elevation: 386.8 ft. / 117.9 m (surveyed)
Variation: 19E (2008)
From city: 5 miles NE of FORT RICHARDSON(ANCHORAGE), AK
Time zone: UTC -9 (UTC -8 during Daylight Saving Time)
Zip code: 99505

Airport Operations

Airport use: Private use. Permission required prior to landing
Control tower: yes
ARTCC: ANCHORAGE CENTER
FSS: KENAI FLIGHT SERVICE STATION [907-283-7211]
NOTAMs facility: PAFR (NOTAM-D service available)
Attendance: 0730-1730 MON-FRI EXCP HOLS
Pattern altitude: 1786.8 ft. MSL
Wind indicator: yes
Segmented circle: yes
Lights: SS-SR
Beacon: white-green (lighted land airport)
Operates sunset to sunrise.

Airport Communications

CTAF: 125.0
ATIS: 134.25
WX ASOS: 134.25
BRYANT GROUND: 121.25 239.25 [1500-0700Z++ MON-FRI EXCEPT FED HOLS.]
BRYANT TOWER: 125.0 254.35 [1500-0700Z++ MON-FRI EXCEPT FED HOLS.]
ANCHORAGE APPROACH: 118.6
ANCHORAGE DEPARTURE: 118.6
CLEARANCE DELIVERY: 119.1
CLASS C: 118.6
OPS: 40.8FM ;AASF OPS
PMSV METRO: 346.6
WX ASOS at MRI (6 nm SW): 124.25 (907-271-5277)
WX AWOS-3P at BCV (10 nm NE): 135.55 (907-688-0826)
WX ASOS at LHD (10 nm SW): PHONE 907-245-5432
WX ASOS at ANC (11 nm SW): PHONE 907-271-5278
WX AWOS-3P at IYS (19 nm N): 135.25 (907-373-3801)

Nearby radio navigation aids

VOR radial/distance  VOR name  Freq  Var
TEDr038/10.6ANCHORAGE VOR/DME113.1518E
BGQr135/20.3BIG LAKE VORTAC112.5019E

Airport Services

Fuel available: B+
Parking: hangars
Airframe service: NONE
Powerplant service: NONE
Bottled oxygen: NONE
Bulk oxygen: NONE

Runway Information

Runway 17/35

Dimensions: 4088 x 100 ft. / 1246 x 30 m
Surface: asphalt
Weight bearing capacity: 
PCN 66 /F/A/W/T
Single wheel: 38.0
Double wheel: 54.0
Runway edge lights: medium intensity
RUNWAY 17  RUNWAY 35
Latitude: 61-16.282833N61-15.625083N
Longitude: 149-39.061233W149-39.335683W
Elevation: 386.8 ft.365.3 ft.
Traffic pattern: leftleft
Runway heading: 172 magnetic, 191 true352 magnetic, 011 true
Displaced threshold: no670 ft.
Declared distances: TORA:4088 TODA:4088 ASDA:4088 LDA:4088TORA:4088 TODA:4088 ASDA:4088 LDA:3418
Markings: basic, in good conditionbasic, in good condition
Visual slope indicator: 4-light PAPI on left (3.50 degrees glide path)
DOES NOT PROVIDE OBST CLEARANCE BEYOND 2.0 NM FROM THLD, DUE TO MOUNTAINOUS TERRAIN EAST OF CNTLRN.
Runway end identifier lights: nono
Touchdown point: yes, no lightsyes, no lights
Obstructions: nonepline, marked, 2000 ft. from runway, 25:1 slope to clear

Airport Ownership and Management from official FAA records

Ownership: U.S. Army
Owner: US GOVT USA
HEADQUARTERS
FT. RICHARDSON, AK 99505
Phone 907-384-7868
Manager: BRYANT ARMY AIRFIELD
47430 WESTBROOK AVE
FT RICHARDSON, AK 99505
Phone 907-428-6561

Airport Operational Statistics

Aircraft based on the field: 70
Single engine airplanes: 15
Multi engine airplanes: 3
Military aircraft: 52
    

Additional Remarks

RECOMMEND VISUAL INSPECTION OF RY.
WILDLIFE OCCASIONALLY ON OR NEAR RY.
TFC PATTERN FOR RWY 17/35 WEST TFC ONLY.
VISUALLY INSPECT RWY WHEN TWR IS CLOSED.
BRYANT TWR - 907-428-6850 (DURING OPERATING HOURS).
RY 17/35 TFC PAT R/W 1100 FT MSL; FIXED WING 1900 FT MSL.
LGTD 180 FT ANTENNAS AT NATIONAL GUARD ARMORY E OF RY 17/35.
ARMY AVIATION SUPPORT FACILITY C907-428-6333.
96 HR PPR FOR SVCS.

Instrument Procedures

NOTE: All procedures below are presented as PDF files. If you need a reader for these files, you should download the free Adobe Reader.

NOT FOR NAVIGATION. Please procure official charts for flight.
FAA instrument procedures published for use from 31 December 2020 at 0901Z to 28 January 2021 at 0900Z.

NOTE: Special Take-Off Minimums/Departure Procedures apply   download (265KB)

Other nearby airports with instrument procedures:

PAED - Elmendorf Air Force Base (5 nm W)
PAMR - Merrill Field Airport (6 nm SW)
PANC - Ted Stevens Anchorage International Airport (11 nm SW)
PAGQ - Big Lake Airport (17 nm N)
PAWS - Wasilla Airport (19 nm N)
 
Loc | Ops | Rwys | IFR | FBO | Links
Com | Nav | Svcs | Stats | Notes

Crowley
 
Area around PAFR (Bryant Army Airfield Heliport)
 
Road maps at: MapQuest Bing Google
 
Aerial photo
No photo
 
Sectional chart

 
Airport distance calculator
Flying to Bryant Army Airfield Heliport? Find the distance to fly.

From to PAFR

Sunrise and sunset
Times for 27-Jan-2021
 Local
(UTC-9)
 Zulu
(UTC)
Morning civil twilight08:4117:41
Sunrise09:3218:32
Sunset16:5101:51
Evening civil twilight17:4202:42

Current date and time
Zulu (UTC)  27-Jan-2021 10:48:40
Local (UTC-9)  27-Jan-2021 01:48:40
 
METAR
PAFR 261958Z AUTO 00000KT 10SM CLR M19/M21 A3006 RMK AO2 SLP197 T11911212 FZRANO $
PAED 
4nm W 
262022Z 00000KT 1SM PRFG CLR M15/M17 A3010 RMK AO2A TWR 1/2 PRFG SCT000 VIS 1/4 RWY16 VIS 1 7/8 RWY24 SLP193 52013
PAMR 
6nm SW 
270953Z 00000KT 10SM SCT004 M19/M22 A3014 RMK AO2 SLP209 T11891217 $
PABV 
10nm NE 
271016Z AUTO 17003KT 10SM SCT006 OVC011 M13/M15 A3015 RMK AO2 FZRANO
PALH 
10nm SW 
270953Z 00000KT 10SM CLR M16/M18 A3016 RMK AO2 SLP214 I1000 T11611178
PANC 
12nm SW 
270953Z 00000KT 10SM FEW020 M13/M16 A3014 RMK AO2 SLP210 T11331156 $
TAF
PAED 
4nm W 
252150Z 2521/2701 VRB06KT 9999 VCFG FEW004 BKN005 QNH2974INS BECMG 2601/2602 VRB06KT 6000 BR VCFG OVC003 QNH2981INS BECMG 2603/2604 VRB06KT 1600 BR VCFG OVC002 QNH2984INS BECMG 2616/2617 VRB06KT 9999 VCFG BKN004 QNH3008INS BECMG 2619/2620 VRB06KT 9999 NSW SCT005 QNH3011INS TXM03/2523Z TNM11/2609Z
PANC 
12nm SW 
270543Z 2706/2812 VRB04KT P6SM SKC FM272200 03005KT P6SM FEW050 BKN100 FM280900 01005KT 5SM -SN BR SCT015 OVC035
NOTAMs
Click for the latest NOTAMs
NOTAMs are issued by the DoD/FAA and will open in a separate window not controlled by AirNav.

 

 
 

Would you like to see your business listed on this page?

 If your business provides an interesting product or service to pilots, flight crews, aircraft, or users of the Bryant Army Airfield Heliport, you should consider listing it here.  To start the listing process, click on the button below
 
Add a business
 

Other Pages about Bryant Army Airfield Heliport

Update a link
 
Copyright © AirNav, LLC. All rights reserved. Privacy Policy  Contact